Location: Fresnoy
(49.7371°N, 2.7756°E)
Time: 06:13:24
(UTC+00:00)

Cosmos 2227 Rocket - Pass Details

Date: 13 December 2025
Orbit: 836 x 845 km, 71.0° (Epoch: 19 April)

Event Time Altitude Azimuth Distance (km) Brightness Sun altitude
Rises 18:03:54 0° 324° (NW) 3,397 5.7 -20.7°
Reaches altitude 10° 18:06:37 10° 313° (NW) 2,459 5.1 -21.2°
Maximum altitude 18:11:23 29° 256° (WSW) 1,493 4.2 -21.9°
Drops below altitude 10° 18:16:08 10° 198° (SSW) 2,448 4.9 -22.7°
Sets 18:18:50 0° 187° (S) 3,379 5.5 -23.1°
